| time (UTC) | temp F | wind direction | speed knots | gust knots | rain 1hr in | rain 24hr in | rain mn in | humidity % | barometer mb |
| 20260505114517 | 40 | 270 | 2.6 | 6.1 | 0.00 | 0.00 | 0.00 | 61 | 1007.4 |
| 20260505113517 | 39 | 293 | 2.6 | 3.5 | 0.00 | 0.00 | 0.00 | 63 | 1007.0 |
| 20260505112517 | 39 | 293 | 1.7 | 2.6 | 0.00 | 0.00 | 0.00 | 62 | 1006.7 |
| 20260505111517 | 39 | 293 | 2.6 | 5.2 | 0.00 | 0.00 | 0.00 | 63 | 1006.7 |
| 20260505110517 | 39 | 293 | 3.5 | 7.0 | 0.00 | 0.00 | 0.00 | 62 | 1006.8 |
| 20260505101536 | 40 | 270 | 1.7 | 3.5 | 0.00 | 0.00 | 0.00 | 61 | 1006.8 |
| 20260505100536 | 41 | 248 | 2.6 | 6.1 | 0.00 | 0.00 | 0.00 | 59 | 1006.8 |
| 20260505095517 | 41 | 248 | 1.7 | 5.2 | 0.00 | 0.00 | 0.00 | 59 | 1006.8 |
| 20260505094516 | 41 | 270 | 1.7 | 3.5 | 0.00 | 0.00 | 0.00 | 58 | 1006.7 |
| 20260505093536 | 41 | 248 | 2.6 | 5.2 | 0.00 | 0.00 | 0.00 | 58 | 1006.7 |
| 20260505092516 | 42 | 270 | 2.6 | 7.0 | 0.00 | 0.00 | 0.00 | 57 | 1006.6 |
| 20260505091516 | 42 | 270 | 2.6 | 6.1 | 0.00 | 0.00 | 0.00 | 57 | 1006.4 |
| 20260505090516 | 42 | 270 | 2.6 | 6.1 | 0.00 | 0.00 | 0.00 | 57 | 1006.2 |
| 20260505085516 | 42 | 270 | 2.6 | 7.0 | 0.00 | 0.00 | 0.00 | 60 | 1006.1 |
| 20260505084557 | 43 | 270 | 3.5 | 7.0 | 0.00 | 0.00 | 0.00 | 54 | 1006.0 |
| 20260505083516 | 42 | 248 | 2.6 | 5.2 | 0.00 | 0.00 | 0.00 | 54 | 1005.9 |
| 20260505082516 | 42 | 270 | 1.7 | 3.5 | 0.00 | 0.00 | 0.00 | 56 | 1005.9 |
| 20260505081516 | 43 | 270 | 2.6 | 3.5 | 0.00 | 0.00 | 0.00 | 57 | 1005.7 |
| 20260505080516 | 43 | 293 | 2.6 | 5.2 | 0.00 | 0.00 | 0.00 | 53 | 1005.3 |
| 20260505075516 | 43 | 293 | 2.6 | 4.3 | 0.00 | 0.00 | 0.00 | 52 | 1005.3 |
| 20260505074516 | 44 | 315 | 4.3 | 7.8 | 0.00 | 0.00 | 0.00 | 51 | 1005.1 |
| 20260505073516 | 44 | 315 | 3.5 | 7.8 | 0.00 | 0.00 | 0.00 | 50 | 1005.1 |
| 20260505072516 | 44 | 293 | 3.5 | 7.8 | 0.00 | 0.00 | 0.00 | 50 | 1005.2 |
| 20260505071516 | 45 | 315 | 3.5 | 7.0 | 0.00 | 0.00 | 0.00 | 49 | 1005.4 |
| 20260505070536 | 45 | 315 | 6.1 | 13.0 | 0.00 | 0.00 | 0.00 | 48 | 1005.4 |
| 20260505065516 | 45 | 315 | 6.1 | 11.3 | 0.00 | 0.00 | 0.00 | 49 | 1005.4 |
| 20260505064536 | 45 | 315 | 5.2 | 10.4 | 0.00 | 0.00 | 0.00 | 49 | 1005.6 |
| 20260505063516 | 46 | 293 | 5.2 | 9.6 | 0.00 | 0.00 | 0.00 | 49 | 1005.7 |
| 20260505062516 | 46 | 315 | 5.2 | 11.3 | 0.00 | 0.00 | 0.00 | 49 | 1005.6 |
| 20260505061536 | 46 | 315 | 7.0 | 13.9 | 0.00 | 0.00 | 0.00 | 49 | 1005.6 |
| 20260505060536 | 46 | 315 | 5.2 | 11.3 | 0.00 | 0.00 | 0.00 | 50 | 1005.6 |
| 20260505055516 | 47 | 315 | 7.0 | 13.9 | 0.00 | 0.00 | 0.00 | 49 | 1005.6 |
| 20260505054516 | 48 | 338 | 5.2 | 9.6 | 0.00 | 0.00 | 0.00 | 50 | 1005.5 |
| 20260505053536 | 48 | 315 | 6.1 | 12.2 | 0.00 | 0.00 | 0.00 | 49 | 1005.3 |
| 20260505052516 | 49 | 315 | 7.0 | 14.8 | 0.00 | 0.00 | 0.00 | 48 | 1005.2 |
| 20260505051516 | 49 | 293 | 7.0 | 14.8 | 0.00 | 0.00 | 0.00 | 48 | 1005.2 |
| 20260505050516 | 49 | 338 | 8.7 | 18.2 | 0.00 | 0.00 | 0.00 | 48 | 1005.1 |
| 20260505041517 | 51 | 315 | 7.0 | 16.5 | 0.00 | 0.00 | 0.00 | 49 | 1004.3 |
| 20260505040517 | 51 | 315 | 10.4 | 15.6 | 0.00 | 0.00 | 0.00 | 48 | 1004.1 |
| 20260505035537 | 52 | 293 | 5.2 | 10.4 | 0.00 | 0.00 | 0.00 | 48 | 1004.0 |
| 20260505034517 | 52 | 293 | 5.2 | 10.4 | 0.00 | 0.00 | 0.00 | 47 | 1003.9 |
| 20260505033517 | 52 | 315 | 7.0 | 17.4 | 0.00 | 0.00 | 0.00 | 46 | 1003.6 |
| 20260505032517 | 53 | 293 | 7.0 | 13.0 | 0.00 | 0.00 | 0.00 | 46 | 1003.6 |
| 20260505031517 | 53 | 270 | 9.6 | 17.4 | 0.00 | 0.00 | 0.00 | 45 | 1003.3 |
| 20260505030517 | 54 | 293 | 8.7 | 18.2 | 0.00 | 0.00 | 0.00 | 44 | 1003.1 |
| 20260505025517 | 54 | 293 | 7.8 | 13.9 | 0.00 | 0.00 | 0.00 | 44 | 1002.9 |
| 20260505024517 | 55 | 293 | 8.7 | 15.6 | 0.00 | 0.00 | 0.00 | 44 | 1002.7 |
| 20260505023518 | 55 | 293 | 6.1 | 10.4 | 0.00 | 0.00 | 0.00 | 44 | 1002.4 |
| 20260505022517 | 55 | 293 | 9.6 | 15.6 | 0.00 | 0.00 | 0.00 | 43 | 1002.2 |
| 20260505020537 | 56 | 293 | 6.1 | 13.9 | 0.00 | 0.00 | 0.00 | 42 | 1001.5 |
| 20260505015517 | 56 | 270 | 7.0 | 13.0 | 0.00 | 0.00 | 0.00 | 42 | 1001.2 |
| 20260505014516 | 56 | 293 | 7.8 | 13.9 | 0.00 | 0.00 | 0.00 | 41 | 1000.9 |
| 20260505013517 | 57 | 270 | 5.2 | 9.6 | 0.00 | 0.00 | 0.00 | 41 | 1000.8 |
| 20260505012517 | 57 | 293 | 5.2 | 11.3 | 0.00 | 0.00 | 0.00 | 40 | 1000.5 |
| 20260505011517 | 58 | 315 | 6.1 | 12.2 | 0.00 | 0.00 | 0.00 | 40 | 1000.2 |
| 20260505010516 | 58 | 293 | 7.8 | 13.0 | 0.00 | 0.00 | 0.00 | 39 | 1000.4 |
| 20260505005537 | 58 | 293 | 6.1 | 18.2 | 0.00 | 0.00 | 0.00 | 38 | 1000.4 |
| 20260505004516 | 59 | 270 | 6.1 | 13.9 | 0.00 | 0.00 | 0.00 | 37 | 1000.5 |
| 20260505003536 | 59 | 293 | 8.7 | 13.9 | 0.00 | 0.00 | 0.00 | 34 | 1000.4 |
| 20260505002516 | 60 | 270 | 7.8 | 15.6 | 0.00 | 0.00 | 0.00 | 34 | 1000.0 |
| 20260505001536 | 60 | 270 | 7.8 | 17.4 | 0.00 | 0.00 | 0.00 | 34 | 999.9 |
| 20260505000517 | 61 | 270 | 7.0 | 14.8 | 0.00 | 0.00 | 0.00 | 33 | 999.8 |
| 20260504235557 | 61 | 248 | 9.6 | 17.4 | 0.00 | 0.00 | 0.00 | 33 | 999.6 |
| 20260504234516 | 62 | 270 | 7.8 | 20.9 | 0.00 | 0.00 | 0.00 | 32 | 999.6 |
| 20260504233516 | 62 | 270 | 9.6 | 16.5 | 0.00 | 0.00 | 0.00 | 32 | 999.5 |
| 20260504232536 | 62 | 248 | 9.6 | 22.6 | 0.00 | 0.00 | 0.00 | 34 | 999.3 |
| 20260504231558 | 63 | 270 | 7.0 | 13.0 | 0.00 | 0.00 | 0.00 | 34 | 999.4 |
| 20260504230516 | 63 | 270 | 7.0 | 14.8 | 0.00 | 0.00 | 0.00 | 35 | 999.3 |
| 20260504225516 | 63 | 270 | 7.8 | 15.6 | 0.00 | 0.00 | 0.00 | 34 | 999.2 |
| 20260504224516 | 63 | 270 | 8.7 | 15.6 | 0.00 | 0.00 | 0.00 | 34 | 999.1 |
| 20260504223516 | 64 | 270 | 7.0 | 13.9 | 0.00 | 0.00 | 0.00 | 33 | 999.1 |
| 20260504222516 | 64 | 270 | 11.3 | 20.0 | 0.00 | 0.00 | 0.00 | 32 | 999.1 |
| 20260504221516 | 65 | 270 | 7.8 | 16.5 | 0.00 | 0.00 | 0.00 | 32 | 999.0 |
| 20260504220516 | 66 | 270 | 12.2 | 23.5 | 0.00 | 0.00 | 0.00 | 32 | 998.8 |
| 20260504215516 | 67 | 293 | 9.6 | 17.4 | 0.00 | 0.00 | 0.00 | 31 | 998.6 |
| 20260504214536 | 68 | 293 | 10.4 | 18.2 | 0.00 | 0.00 | 0.00 | 30 | 998.5 |
| 20260504213516 | 69 | 270 | 7.8 | 20.0 | 0.00 | 0.00 | 0.00 | 32 | 998.2 |
| 20260504212516 | 69 | 293 | 9.6 | 19.1 | 0.00 | 0.00 | 0.00 | 34 | 998.0 |
| 20260504211536 | 70 | 293 | 8.7 | 18.2 | 0.00 | 0.00 | 0.00 | 34 | 998.1 |
| 20260504210516 | 70 | 293 | 10.4 | 21.7 | 0.00 | 0.00 | 0.00 | 37 | 997.9 |
| 20260504205516 | 71 | 270 | 8.7 | 21.7 | 0.00 | 0.00 | 0.00 | 34 | 997.9 |
| 20260504204516 | 71 | 315 | 8.7 | 16.5 | 0.00 | 0.00 | 0.00 | 39 | 997.8 |
| 20260504203516 | 71 | 270 | 9.6 | 19.1 | 0.00 | 0.00 | 0.00 | 37 | 997.8 |
| 20260504202516 | 72 | 293 | 10.4 | 21.7 | 0.00 | 0.00 | 0.00 | 36 | 997.7 |
| 20260504201516 | 73 | 293 | 8.7 | 17.4 | 0.00 | 0.00 | 0.00 | 40 | 997.6 |
| 20260504200516 | 73 | 293 | 8.7 | 17.4 | 0.00 | 0.00 | 0.00 | 38 | 997.4 |
| 20260504195516 | 73 | 270 | 11.3 | 21.7 | 0.00 | 0.00 | 0.00 | 37 | 997.5 |
| 20260504194516 | 73 | 270 | 12.2 | 25.2 | 0.00 | 0.00 | 0.00 | 36 | 997.2 |
| 20260504193516 | 74 | 293 | 10.4 | 22.6 | 0.00 | 0.00 | 0.00 | 40 | 997.4 |
| 20260504192516 | 74 | 270 | 9.6 | 19.1 | 0.00 | 0.00 | 0.00 | 39 | 997.4 |
| 20260504191538 | 74 | 248 | 8.7 | 13.9 | 0.00 | 0.00 | 0.00 | 39 | 997.4 |
| 20260504190516 | 73 | 270 | 8.7 | 17.4 | 0.00 | 0.00 | 0.00 | 38 | 997.4 |
| 20260504185516 | 73 | 248 | 10.4 | 22.6 | 0.00 | 0.00 | 0.00 | 37 | 997.3 |
| 20260504184536 | 73 | 270 | 13.9 | 25.2 | 0.00 | 0.00 | 0.00 | 36 | 997.4 |
| 20260504183516 | 74 | 248 | 12.2 | 22.6 | 0.00 | 0.00 | 0.00 | 35 | 997.5 |
| 20260504182516 | 74 | 270 | 14.8 | 27.8 | 0.00 | 0.00 | 0.00 | 36 | 997.3 |
| 20260504181516 | 74 | 270 | 13.9 | 24.3 | 0.00 | 0.00 | 0.00 | 36 | 997.4 |
| 20260504180516 | 74 | 248 | 14.8 | 27.8 | 0.00 | 0.00 | 0.00 | 36 | 997.2 |
| 20260504175556 | 74 | 248 | 11.3 | 21.7 | 0.00 | 0.00 | 0.00 | 35 | 997.2 |
| 20260504174536 | 75 | 270 | 9.6 | 20.0 | 0.00 | 0.00 | 0.00 | 35 | 997.3 |
| 20260504173516 | 74 | 248 | 12.2 | 21.7 | 0.00 | 0.00 | 0.00 | 34 | 997.3 |
| 20260504172516 | 74 | 248 | 11.3 | 22.6 | 0.00 | 0.00 | 0.00 | 36 | 997.6 |
| 20260504171516 | 74 | 248 | 8.7 | 18.2 | 0.00 | 0.00 | 0.00 | 35 | 997.7 |
| 20260504170516 | 74 | 225 | 9.6 | 20.9 | 0.00 | 0.00 | 0.00 | 37 | 997.7 |
| 20260504150516 | 68 | 225 | 11.3 | 26.1 | 0.00 | 0.00 | 0.00 | 42 | 998.5 |
| 20260504140556 | 63 | 225 | 7.0 | 13.9 | 0.00 | 0.00 | 0.00 | 46 | 999.2 |
| 20260504130516 | 56 | 225 | 4.3 | 9.6 | 0.00 | 0.00 | 0.00 | 55 | 999.8 |